Sigfox identifier Datetime Temperature Humidity SNR
003A57E8 2019-04-23 14:48:25 16.3 29 24.4
003A57E8 2019-04-23 14:17:44 16.2 29 24.3
003A57E8 2019-04-23 13:47:05 16.1 29 24.2
003A57E8 2019-04-23 13:16:27 16.1 29 24.2
003A57E8 2019-04-23 12:45:48 15.9 29 24.2
003A57E8 2019-04-23 12:15:08 15.7 29 24.2
003A57E8 2019-04-23 11:44:29 15.7 29 24.1
003A57E8 2019-04-23 11:13:50 15.7 29 24
003A57E8 2019-04-23 10:43:11 15.5 29 23.9
003A57E8 2019-04-23 10:12:32 15.5 29 23.5
003A57E8 2019-04-23 09:41:52 15.5 29 23.6
003A57E8 2019-04-23 09:11:13 15.5 29 23.5
003A57E8 2019-04-23 08:40:34 15.5 29 23.1
003A57E8 2019-04-23 08:09:54 15.5 29 22.9
003A57E8 2019-04-23 07:39:14 15.5 29 22.9
003A57E8 2019-04-23 07:08:35 15.5 29 22.7
003A57E8 2019-04-23 06:37:56 15.4 29 22.6
003A57E8 2019-04-23 06:07:16 15.3 29 22.6
003A57E8 2019-04-23 05:36:37 15.3 29 22.4
003A57E8 2019-04-23 05:05:57 15.3 29 22.2
003A57E8 2019-04-23 04:35:18 15.4 29 22.1
003A57E8 2019-04-23 04:04:38 15.4 28 21.9
003A57E8 2019-04-23 03:33:58 15.3 29 21.7
003A57E8 2019-04-23 03:03:19 15.3 28 21.5
003A57E8 2019-04-23 02:32:39 15.3 28 21.3
003A57E8 2019-04-23 02:01:59 15.4 28 21.2
003A57E8 2019-04-23 01:31:20 15.5 28 21.1
003A57E8 2019-04-23 01:00:41 15.5 28 20.8
003A57E8 2019-04-23 00:30:01 15.5 28 20.8
003A57E8 2019-04-22 23:59:21 15.5 28 20.8
003A57E8 2019-04-22 23:28:42 15.5 28 20.7
003A57E8 2019-04-22 22:58:03 15.5 28 20.6
003A57E8 2019-04-22 22:27:21 15.5 28 20.8
003A57E8 2019-04-22 21:56:42 15.5 28 20.9
003A57E8 2019-04-22 21:26:01 15.6 28 20.8
003A57E8 2019-04-22 20:55:21 15.6 28 20.8
003A57E8 2019-04-22 20:24:42 15.7 28 21.1
003A57E8 2019-04-22 19:54:03 15.7 28 21.4
003A57E8 2019-04-22 19:23:27 15.7 28 21.9
003A57E8 2019-04-22 18:52:46 15.9 28 22
003A57E8 2019-04-22 18:22:08 15.9 28 22
003A57E8 2019-04-22 17:51:30 15.9 28 22.1
003A57E8 2019-04-22 17:20:51 15.9 28 22.2
003A57E8 2019-04-22 16:50:13 15.8 28 22.3
003A57E8 2019-04-22 16:19:33 15.7 28 22.4
003A57E8 2019-04-22 15:48:54 15.7 28 22.5
003A57E8 2019-04-22 15:18:15 15.7 28 22.6
003A57E8 2019-04-22 14:47:35 15.7 28 22.7
003A57E8 2019-04-22 14:16:57 15.7 28 22.7
003A57E8 2019-04-22 13:46:19 15.5 28 22.8
003A57E8 2019-04-22 13:15:40 15.6 28 22.9
003A57E8 2019-04-22 12:45:00 15.6 28 23
003A57E8 2019-04-22 12:14:21 15.5 28 23.1
003A57E8 2019-04-22 11:43:41 15.5 28 23.2
003A57E8 2019-04-22 11:13:02 15.6 28 23.2
003A57E8 2019-04-22 10:42:22 15.5 28 23.2
003A57E8 2019-04-22 10:11:42 15.5 28 23
003A57E8 2019-04-22 09:41:03 15.4 28 23.1
003A57E8 2019-04-22 09:10:23 15.5 28 23.1
003A57E8 2019-04-22 08:39:43 15.5 28 23
003A57E8 2019-04-22 08:09:02 15.5 28 23
003A57E8 2019-04-22 07:38:21 15.5 28 22.9
003A57E8 2019-04-22 07:07:42 15.5 28 22.8
003A57E8 2019-04-22 06:37:01 15.5 28 22.5
003A57E8 2019-04-22 06:06:21 15.5 28 22.5
003A57E8 2019-04-22 05:35:40 15.5 28 22.5
003A57E8 2019-04-22 05:04:59 15.5 28 22.5
003A57E8 2019-04-22 04:34:21 15.5 28 22.4
003A57E8 2019-04-22 04:03:39 15.5 28 22.3
003A57E8 2019-04-22 03:32:59 15.5 27 22.3
003A57E8 2019-04-22 03:02:19 15.5 28 22.4
003A57E8 2019-04-22 02:31:39 15.5 28 22.3
003A57E8 2019-04-22 02:00:59 15.5 27 22.3
003A57E8 2019-04-22 01:30:19 15.5 27 22.3
003A57E8 2019-04-22 00:59:40 15.3 27 22.1
003A57E8 2019-04-22 00:29:01 15.3 27 22.1
003A57E8 2019-04-21 23:58:22 15.3 27 22.8
003A57E8 2019-04-21 23:27:42 15.3 27 22.9
003A57E8 2019-04-21 22:57:03 15.3 27 22.8
003A57E8 2019-04-21 22:26:23 15.3 27 22.8
003A57E8 2019-04-21 21:55:42 15.3 27 22.8
003A57E8 2019-04-21 21:25:03 15.3 27 23
003A57E8 2019-04-21 20:54:24 15.3 27 23.1
003A57E8 2019-04-21 20:23:45 15.3 27 23.1
003A57E8 2019-04-21 19:53:05 15.3 27 23.1
003A57E8 2019-04-21 19:22:25 15.3 27 23.1
003A57E8 2019-04-21 18:51:46 15.3 27 23.2
003A57E8 2019-04-21 18:21:06 15.3 27 23.3
003A57E8 2019-04-21 17:50:27 15.3 27 23.5
003A57E8 2019-04-21 17:19:48 15.3 27 23.5
003A57E8 2019-04-21 16:49:09 15.3 27 23.5
003A57E8 2019-04-21 16:18:31 15.3 27 23.7
003A57E8 2019-04-21 15:47:52 15.2 27 23.9
003A57E8 2019-04-21 15:17:14 15.2 27 24
003A57E8 2019-04-21 14:46:35 15.2 27 24
003A57E8 2019-04-21 14:15:57 15.2 27 24
003A57E8 2019-04-21 13:45:19 15.2 27 24.1
003A57E8 2019-04-21 13:14:39 15.1 27 24.1
003A57E8 2019-04-21 12:44:00 15.1 27 24.2
003A57E8 2019-04-21 12:13:21 15.2 27 24.2
003A57E8 2019-04-21 11:42:43 15.1 27 24.3
003A57E8 2019-04-21 11:12:03 15.2 27 23.7
003A57E8 2019-04-21 10:41:23 15.2 27 23.6
003A57E8 2019-04-21 10:10:45 15.3 27 23.6
003A57E8 2019-04-21 09:40:06 15.3 27 23.6
003A57E8 2019-04-21 09:09:28 15.3 27 23.5
003A57E8 2019-04-21 08:38:48 15.5 27 23.5
003A57E8 2019-04-21 08:08:10 15.5 27 23.4
003A57E8 2019-04-21 07:37:31 15.5 27 23.4
003A57E8 2019-04-21 07:06:51 15.5 27 23.4
003A57E8 2019-04-21 06:36:12 15.5 27 23.4
003A57E8 2019-04-21 06:05:32 15.5 27 23.3
003A57E8 2019-04-21 05:34:53 15.5 27 23.3
003A57E8 2019-04-21 05:04:14 15.5 26 23.2
003A57E8 2019-04-21 04:33:35 15.5 27 23.2
003A57E8 2019-04-21 04:02:56 15.5 26 23
003A57E8 2019-04-21 03:32:17 15.5 27 22.9
003A57E8 2019-04-21 03:01:38 15.4 26 22.7
003A57E8 2019-04-21 02:30:59 15.5 26 22.6
003A57E8 2019-04-21 02:00:20 15.4 26 22.6
003A57E8 2019-04-21 01:29:41 15.5 26 22.6
003A57E8 2019-04-21 00:59:03 15.3 26 22.5
003A57E8 2019-04-21 00:28:23 15.4 26 22.6
003A57E8 2019-04-20 23:57:44 15.4 26 22.5
003A57E8 2019-04-20 23:27:05 15.3 26 22.5
003A57E8 2019-04-20 22:56:25 15.3 26 22.5
003A57E8 2019-04-20 22:25:45 15.3 26 22.5
003A57E8 2019-04-20 21:55:04 15.3 26 22.5
003A57E8 2019-04-20 21:24:24 15.3 26 22.6
003A57E8 2019-04-20 20:53:45 15.3 26 22.7
003A57E8 2019-04-20 20:23:06 15.3 26 22.7
003A57E8 2019-04-20 19:52:25 15.3 26 22.8
003A57E8 2019-04-20 19:21:45 15.3 26 22.9
003A57E8 2019-04-20 18:51:05 15.3 26 23
003A57E8 2019-04-20 18:20:25 15.4 26 23
003A57E8 2019-04-20 17:49:45 15.4 26 23.1
003A57E8 2019-04-20 17:19:05 15.3 26 23.2
003A57E8 2019-04-20 16:48:24 15.3 26 23.1
003A57E8 2019-04-20 16:17:46 15.3 26 23.1
003A57E8 2019-04-20 15:47:07 15.3 26 23
003A57E8 2019-04-20 15:16:30 15.3 26 23.1
003A57E8 2019-04-20 14:45:50 15.3 26 23.1
003A57E8 2019-04-20 14:15:10 15.2 26 23
003A57E8 2019-04-20 13:44:30 15.3 26 23.1
003A57E8 2019-04-20 13:13:50 15.3 26 23
003A57E8 2019-04-20 12:43:11 15.3 26 23
003A57E8 2019-04-20 12:12:31 15.3 26 23
003A57E8 2019-04-20 11:41:51 15.3 26 22.9
003A57E8 2019-04-20 11:11:12 15.3 26 22.9
003A57E8 2019-04-20 10:40:32 15.3 26 22.9
003A57E8 2019-04-20 10:09:53 15.3 25 22.8
003A57E8 2019-04-20 09:39:13 15.3 25 22.8
003A57E8 2019-04-20 09:08:32 15.3 25 22.5
003A57E8 2019-04-20 08:37:52 15.5 25 22.5
003A57E8 2019-04-20 08:07:12 15.5 25 22.4
003A57E8 2019-04-20 07:36:32 15.5 25 22.4
003A57E8 2019-04-20 07:05:52 15.5 25 22.2
003A57E8 2019-04-20 06:35:13 15.5 25 22.1
003A57E8 2019-04-20 06:04:34 15.5 25 22
003A57E8 2019-04-20 05:33:54 15.5 25 21.9
003A57E8 2019-04-20 05:03:14 15.5 25 21.4
003A57E8 2019-04-20 04:32:35 15.4 25 21.4
003A57E8 2019-04-20 04:01:55 15.5 25 22.4
003A57E8 2019-04-20 03:31:15 15.5 25 22.3
003A57E8 2019-04-20 03:00:37 15.5 25 22.3
003A57E8 2019-04-20 02:29:55 15.5 25 22.2
003A57E8 2019-04-20 01:59:15 15.5 25 22.1
003A57E8 2019-04-20 01:28:36 15.7 25 22
003A57E8 2019-04-20 00:57:56 15.7 25 22
003A57E8 2019-04-20 00:27:17 15.7 25 22
003A57E8 2019-04-19 23:56:37 15.7 25 22
003A57E8 2019-04-19 23:25:57 15.7 25 22.1
003A57E8 2019-04-19 22:55:17 15.7 25 22.1
003A57E8 2019-04-19 22:24:39 15.7 25 22.3
003A57E8 2019-04-19 21:53:56 15.9 25 22.4
003A57E8 2019-04-19 21:23:18 15.9 25 22.5
003A57E8 2019-04-19 20:52:38 15.9 25 22.5
003A57E8 2019-04-19 20:21:59 15.9 25 22.7
003A57E8 2019-04-19 19:51:19 15.9 25 22.8
003A57E8 2019-04-19 19:20:39 16 25 22.9
003A57E8 2019-04-19 18:49:59 16 25 23.1
003A57E8 2019-04-19 18:19:17 16.1 25 23.2
003A57E8 2019-04-19 17:48:38 15.9 25 23.3
003A57E8 2019-04-19 17:17:59 15.9 25 23.4
003A57E8 2019-04-19 16:47:19 15.9 25 22.9
003A57E8 2019-04-19 16:16:40 15.9 25 23
003A57E8 2019-04-19 15:46:01 15.9 25 23.1
003A57E8 2019-04-19 15:15:21 15.9 25 23.3
003A57E8 2019-04-19 14:44:41 15.7 25 23.3
003A57E8 2019-04-19 14:14:02 15.7 25 23.3
003A57E8 2019-04-19 13:43:22 15.7 25 23.4
003A57E8 2019-04-19 13:12:42 15.7 24 23.6
003A57E8 2019-04-19 12:42:01 15.7 24 23.7
003A57E8 2019-04-19 12:11:20 15.7 24 23.8
003A57E8 2019-04-19 11:40:40 15.5 24 23.9
003A57E8 2019-04-19 11:10:00 15.5 24 23.9
003A57E8 2019-04-19 10:39:20 15.5 24 23.9
003A57E8 2019-04-19 10:08:40 15.5 24 24
003A57E8 2019-04-19 09:38:00 15.5 24 24
003A57E8 2019-04-19 09:07:21 15.5 24 24
003A57E8 2019-04-19 08:36:40 15.5 24 23.9
003A57E8 2019-04-19 08:06:01 15.5 24 23.8
003A57E8 2019-04-19 07:35:21 15.5 24 23.8
003A57E8 2019-04-19 07:04:41 15.5 24 23.9
003A57E8 2019-04-19 06:34:02 15.5 24 23.8
003A57E8 2019-04-19 06:03:24 15.6 24 23.9
003A57E8 2019-04-19 05:32:45 15.7 24 23.9
003A57E8 2019-04-19 05:02:06 15.7 24 23.9
003A57E8 2019-04-19 04:31:26 15.5 24 23.9
003A57E8 2019-04-19 04:00:47 15.7 24 23.9
003A57E8 2019-04-19 03:30:09 15.7 24 24
003A57E8 2019-04-19 02:59:27 15.7 24 24
003A57E8 2019-04-19 02:28:47 15.7 24 24.1
003A57E8 2019-04-19 01:58:06 15.7 24 24.2
003A57E8 2019-04-19 01:27:27 15.8 24 24.1
003A57E8 2019-04-19 00:56:47 15.9 24 24
003A57E8 2019-04-19 00:26:08 15.9 24 24
003A57E8 2019-04-18 23:55:28 16 24 24.2
003A57E8 2019-04-18 23:24:50 16.1 24 24.1
003A57E8 2019-04-18 22:54:10 16.1 24 24.1
003A57E8 2019-04-18 22:23:31 16.3 24 24.2
003A57E8 2019-04-18 21:52:52 16.3 24 24.1
003A57E8 2019-04-18 21:22:12 16.3 24 24.3
003A57E8 2019-04-18 20:51:33 16.3 24 24.3
003A57E8 2019-04-18 20:20:52 16.3 24 24.2
003A57E8 2019-04-18 19:50:12 16.4 24 24.3
003A57E8 2019-04-18 19:19:32 16.5 23 24.4
003A57E8 2019-04-18 18:48:53 16.5 23 24.4
003A57E8 2019-04-18 18:18:13 16.4 23 24.5
003A57E8 2019-04-18 17:47:34 16.4 23 24.4
003A57E8 2019-04-18 17:16:55 16.4 23 24.5
003A57E8 2019-04-18 16:46:15 16.3 23 24.5
003A57E8 2019-04-18 16:15:35 16.3 23 24.6
003A57E8 2019-04-18 15:44:55 16.3 23 24.6
003A57E8 2019-04-18 15:14:15 16.3 23 24.5
003A57E8 2019-04-18 14:43:36 16.1 23 24.5
003A57E8 2019-04-18 14:12:57 16.1 23 24.5
003A57E8 2019-04-18 13:42:17 15.9 23 24.4
003A57E8 2019-04-18 13:11:36 15.9 23 24.4
003A57E8 2019-04-18 12:40:55 15.9 23 24.5
003A57E8 2019-04-18 12:10:15 15.9 23 24.5
003A57E8 2019-04-18 11:39:34 15.9 23 24.4
003A57E8 2019-04-18 11:08:54 15.9 23 24.3
003A57E8 2019-04-18 10:38:13 15.9 23 24.4
003A57E8 2019-04-18 10:07:33 15.7 23 24.5
003A57E8 2019-04-18 09:36:53 15.7 23 24.5
003A57E8 2019-04-18 09:06:14 15.7 23 24.7
003A57E8 2019-04-18 08:35:31 15.9 23 24.4
003A57E8 2019-04-18 08:04:51 15.9 23 24.5
003A57E8 2019-04-18 07:34:11 15.9 23 24.6
003A57E8 2019-04-18 07:03:30 15.9 23 24.7
003A57E8 2019-04-18 06:32:48 15.9 23 24.6
003A57E8 2019-04-18 06:02:07 15.7 23 24.5
003A57E8 2019-04-18 05:31:26 15.7 23 24.3
003A57E8 2019-04-18 05:00:45 15.7 23 24.1
003A57E8 2019-04-18 04:30:05 15.7 22 24.3
003A57E8 2019-04-18 03:59:25 15.7 22 24.4
003A57E8 2019-04-18 03:28:44 15.7 22 24.3
003A57E8 2019-04-18 02:58:06 15.7 22 24.4
003A57E8 2019-04-18 02:27:24 15.7 22 24.4
003A57E8 2019-04-18 01:56:44 15.7 22 24.2
003A57E8 2019-04-18 01:26:04 15.9 22 24.2
003A57E8 2019-04-18 00:55:23 15.9 22 24.1
003A57E8 2019-04-18 00:24:43 16.1 22 24
003A57E8 2019-04-17 23:54:04 16.2 22 24.5
003A57E8 2019-04-17 23:23:24 16.3 22 24.5
003A57E8 2019-04-17 22:52:44 16.3 22 24.4
003A57E8 2019-04-17 22:22:05 16.3 22 24.3
003A57E8 2019-04-17 21:51:26 16.3 22 24.1
003A57E8 2019-04-17 21:20:48 16.3 22 23.9
003A57E8 2019-04-17 20:50:08 16.1 22 23.7
003A57E8 2019-04-17 20:19:30 16.1 22 23.6
003A57E8 2019-04-17 19:48:52 16.1 22 23.8
003A57E8 2019-04-17 19:18:13 16.1 22 23.7
003A57E8 2019-04-17 18:47:35 16.1 22 23.8
003A57E8 2019-04-17 18:16:55 16.1 22 23.9
003A57E8 2019-04-17 17:46:16 16.1 22 23.9
003A57E8 2019-04-17 17:15:37 16.1 22 23.8
003A57E8 2019-04-17 16:44:57 15.9 22 24
003A57E8 2019-04-17 16:14:16 15.9 22 24.1
003A57E8 2019-04-17 15:43:38 15.9 22 23.8
003A57E8 2019-04-17 15:12:58 15.9 21 23.7
003A57E8 2019-04-17 14:42:18 16 21 23.9
003A57E8 2019-04-17 14:11:38 16.1 21 23.7
003A57E8 2019-04-17 13:40:59 16.2 21 23.7
003A57E8 2019-04-17 13:10:20 16.3 21 23.8
003A57E8 2019-04-17 12:39:41 16.3 21 23.8
003A57E8 2019-04-17 12:09:02 16.3 21 23.9
003A57E8 2019-04-17 11:38:22 16.1 21 23.9
003A57E8 2019-04-17 11:07:44 16.1 21 23.1
003A57E8 2019-04-17 10:37:06 16 21 23
003A57E8 2019-04-17 10:06:26 16.1 21 22.9
003A57E8 2019-04-17 09:35:47 15.9 21 22.9
003A57E8 2019-04-17 09:05:08 15.9 21 23.6
003A57E8 2019-04-17 08:34:29 16.1 21 23.6
003A57E8 2019-04-17 08:03:51 16.3 21 23.6
003A57E8 2019-04-17 07:33:13 16.5 21 23.6
003A57E8 2019-04-17 07:02:34 16.7 21 23.2
003A57E8 2019-04-17 06:31:55 16.8 21 23.2
003A57E8 2019-04-17 06:01:16 17 21 22.8
003A57E8 2019-04-17 05:30:37 17 21 22.8
003A57E8 2019-04-17 04:59:57 17 21 22.9
003A57E8 2019-04-17 04:29:18 17 21 23
003A57E8 2019-04-17 03:58:39 17.1 21 22.9
003A57E8 2019-04-17 03:27:58 17.2 21 22.6
003A57E8 2019-04-17 02:57:20 17.2 21 22.6
003A57E8 2019-04-17 02:26:40 17.3 21 22.5
003A57E8 2019-04-17 01:56:00 17.3 21 22
003A57E8 2019-04-17 01:25:22 17.2 21 21.8
003A57E8 2019-04-17 00:54:44 17.2 21 21.9
003A57E8 2019-04-17 00:24:04 17.2 21 21.7
003A57E8 2019-04-16 23:53:26 17 21 21.7
003A57E8 2019-04-16 23:22:47 16.8 21 21.8
003A57E8 2019-04-16 22:52:10 16.8 20 21.9
003A57E8 2019-04-16 22:21:30 17.2 20 21.9
003A57E8 2019-04-16 21:50:52 17.6 20 22
003A57E8 2019-04-16 21:20:14 17.8 20 22.9
003A57E8 2019-04-16 20:49:35 18 20 23
003A57E8 2019-04-16 20:18:56 18.2 20 22.5
003A57E8 2019-04-16 19:48:18 18.3 20 22.8
003A57E8 2019-04-16 19:17:38 18.3 20 23
003A57E8 2019-04-16 18:46:59 18.3 20 23.2
003A57E8 2019-04-16 18:16:22 18.3 20 23.7
003A57E8 2019-04-16 17:45:43 18.5 20 23.6
003A57E8 2019-04-16 16:44:26 18.7 20 23.9
003A57E8 2019-04-16 16:13:47 18.9 20 23.8
003A57E8 2019-04-16 15:12:29 19.3 20 23.9
003A57E8 2019-04-16 14:41:50 19.9 20 23.8
003A57E8 2019-04-16 13:40:33 21 20 23.9
003A57E8 2019-04-16 13:09:55 20.8 20 24.1
003A57E8 2019-04-16 12:39:18 20.9 20 24.1
003A57E8 2019-04-16 12:08:38 20.8 20 24.4
003A57E8 2019-04-16 11:37:59 20.8 20 24.8
003A57E8 2019-04-16 11:07:21 20.8 20 25
003A57E8 2019-04-16 10:36:42 20.8 20 25.1
003A57E8 2019-04-16 10:06:05 20.8 20 25.1
003A57E8 2019-04-16 09:35:23 20.8 20 25.4
003A57E8 2019-04-16 09:04:44 20.8 20 25.5
003A57E8 2019-04-16 08:34:05 20.8 20 25.5
003A57E8 2019-04-16 08:03:25 20.8 20 25.7
003A57E8 2019-04-16 07:32:46 20.8 20 25.8
003A57E8 2019-04-16 07:02:07 20.7 20 25.5
003A57E8 2019-04-16 06:31:28 20.8 20 25.5
003A57E8 2019-04-16 06:00:49 20.8 20 25.4
003A57E8 2019-04-16 05:30:11 20.8 20 25.3
003A57E8 2019-04-16 04:59:32 20.8 20 25.2
003A57E8 2019-04-16 04:28:52 20.8 20 25.3
003A57E8 2019-04-16 03:58:13 20.8 20 25.4
003A57E8 2019-04-16 03:27:35 20.8 19 25.5
003A57E8 2019-04-16 02:56:56 20.8 19 25.6
003A57E8 2019-04-16 02:26:17 20.8 19 25.5
003A57E8 2019-04-16 01:55:39 20.8 19 25.4
003A57E8 2019-04-16 01:25:00 20.8 19 25.3
003A57E8 2019-04-16 00:54:22 20.8 19 25.2
003A57E8 2019-04-16 00:23:43 20.9 19 25.2
003A57E8 2019-04-15 23:53:05 20.8 19 25.1
003A57E8 2019-04-15 23:22:25 20.8 19 25.2
003A57E8 2019-04-15 22:51:46 20.9 19 25.2
003A57E8 2019-04-15 22:21:06 20.9 19 25.4
003A57E8 2019-04-15 21:50:28 20.9 19 25.5
003A57E8 2019-04-15 21:19:49 20.9 19 25.8
003A57E8 2019-04-15 20:49:10 20.9 19 25.7
003A57E8 2019-04-15 20:18:31 20.9 19 25.6
003A57E8 2019-04-15 19:47:52 20.8 19 25.6
003A57E8 2019-04-15 19:17:14 20.8 19 25.6
003A57E8 2019-04-15 18:46:34 20.8 19 25.5
003A57E8 2019-04-15 18:15:57 20.8 19 25.6
003A57E8 2019-04-15 17:45:16 21 18 25.6
003A57E8 2019-04-15 17:14:38 21 18 25.9
003A57E8 2019-04-15 16:43:57 21 18 26.2
003A57E8 2019-04-15 16:13:19 21 18 26.3
003A57E8 2019-04-15 15:42:40 21.2 18 26.2
003A57E8 2019-04-15 15:12:01 21.2 18 26
003A57E8 2019-04-15 14:41:22 21.3 18 26.2
003A57E8 2019-04-15 14:10:43 21.5 18 26.2
003A57E8 2019-04-15 13:40:05 21.5 18 26.5
003A57E8 2019-04-15 13:09:27 21.7 17 26.6
003A57E8 2019-04-15 12:38:50 22 17 26.7
003A57E8 2019-04-15 12:08:11 22.1 17 26.9
003A57E8 2019-04-15 11:37:32 22.1 16 27
003A57E8 2019-04-15 11:06:53 22.1 16 27
003A57E8 2019-04-15 10:36:14 22 16 27
003A57E8 2019-04-15 10:05:35 22 16 26.9
003A57E8 2019-04-15 09:34:57 21.9 17 26.9
003A57E8 2019-04-15 09:04:18 21.9 16 27
003A57E8 2019-04-15 08:33:40 21.8 16 26.9
003A57E8 2019-04-15 08:03:01 21.7 16 26.8
003A57E8 2019-04-15 07:32:23 21.7 17 27
003A57E8 2019-04-15 07:01:45 21.7 17 27.2
003A57E8 2019-04-15 06:31:07 21.7 17 27.2
003A57E8 2019-04-15 06:00:28 21.7 17 27.2
003A57E8 2019-04-15 05:29:49 21.7 17 27.1
003A57E8 2019-04-15 04:59:11 21.6 17 27.1
003A57E8 2019-04-15 04:28:32 21.7 17 26.9
003A57E8 2019-04-15 03:57:53 21.7 17 26.7
003A57E8 2019-04-15 03:27:14 21.7 17 26.7
003A57E8 2019-04-15 02:56:36 21.7 17 26.8
003A57E8 2019-04-15 02:25:58 21.6 17 26.7
003A57E8 2019-04-15 01:55:20 21.7 17 26.6
003A57E8 2019-04-15 01:24:42 21.7 17 26.5
003A57E8 2019-04-15 00:54:04 21.6 17 26.3
003A57E8 2019-04-15 00:23:26 21.6 17 26.3
003A57E8 2019-04-14 23:52:46 21.7 17 26.2
003A57E8 2019-04-14 23:22:07 21.7 17 26.2
003A57E8 2019-04-14 22:51:28 21.7 17 26
003A57E8 2019-04-14 22:20:49 21.7 17 26.3
003A57E8 2019-04-14 21:50:10 21.7 18 26.5
003A57E8 2019-04-14 21:19:31 21.7 18 26.5
003A57E8 2019-04-14 20:48:52 21.7 18 26.3
003A57E8 2019-04-14 20:18:13 21.7 18 26.2
003A57E8 2019-04-14 19:47:34 21.7 18 26.3
003A57E8 2019-04-14 19:16:56 21.7 18 26.3
003A57E8 2019-04-14 18:46:17 21.7 18 26.2
003A57E8 2019-04-14 18:15:39 21.7 17 26.1
003A57E8 2019-04-14 17:45:00 21.7 18 26.1
003A57E8 2019-04-14 17:14:23 21.7 17 26.4
003A57E8 2019-04-14 16:43:45 21.7 17 26.4
003A57E8 2019-04-14 16:13:06 21.7 18 26.5
003A57E8 2019-04-14 15:42:27 21.7 18 26.5
003A57E8 2019-04-14 15:11:49 21.7 18 26.6
003A57E8 2019-04-14 14:41:10 21.7 18 26.5
003A57E8 2019-04-14 14:10:32 21.7 18 26.6
003A57E8 2019-04-14 13:39:53 21.7 18 26.6
003A57E8 2019-04-14 13:09:15 21.7 18 26.7
003A57E8 2019-04-14 12:38:37 21.7 18 26.7
003A57E8 2019-04-14 12:07:59 21.7 18 26.9
003A57E8 2019-04-14 11:37:21 21.7 18 27
003A57E8 2019-04-14 11:06:42 21.7 18 27
003A57E8 2019-04-14 10:36:03 21.7 18 27.2
003A57E8 2019-04-14 10:05:25 21.7 18 27.3
003A57E8 2019-04-14 09:34:47 21.7 18 27.3
003A57E8 2019-04-14 09:04:08 21.7 18 27
003A57E8 2019-04-14 08:33:28 21.7 18 27.1
003A57E8 2019-04-14 08:02:48 21.7 18 27
003A57E8 2019-04-14 07:32:09 21.7 18 27
003A57E8 2019-04-14 07:01:31 21.7 18 26.9
003A57E8 2019-04-14 06:30:51 21.7 17 26.8
003A57E8 2019-04-14 06:00:11 21.7 17 26.7
003A57E8 2019-04-14 05:29:31 21.7 17 26.6
003A57E8 2019-04-14 04:58:52 21.7 17 26.7
003A57E8 2019-04-14 04:28:12 21.7 17 26.4
003A57E8 2019-04-14 03:57:33 21.7 17 26.4
003A57E8 2019-04-14 03:26:53 21.7 18 26.3
003A57E8 2019-04-14 02:56:14 21.8 18 26.3
003A57E8 2019-04-14 02:25:35 21.7 18 26.2
003A57E8 2019-04-14 01:54:55 21.7 18 26.4
003A57E8 2019-04-14 01:24:16 21.8 18 26.3
003A57E8 2019-04-14 00:53:37 21.8 18 26.4
003A57E8 2019-04-14 00:22:58 21.9 18 26.2
003A57E8 2019-04-13 23:52:20 21.9 18 26.3
003A57E8 2019-04-13 23:21:41 21.9 17 26.2
003A57E8 2019-04-13 22:51:03 21.9 17 26
003A57E8 2019-04-13 22:20:23 21.9 17 26.1
003A57E8 2019-04-13 21:49:45 21.9 17 26
003A57E8 2019-04-13 21:19:05 21.9 17 25.9
003A57E8 2019-04-13 20:48:26 21.9 17 25.6
003A57E8 2019-04-13 20:17:47 21.9 17 25.7
003A57E8 2019-04-13 19:47:08 21.9 17 25.8
003A57E8 2019-04-13 19:16:29 22 17 26
003A57E8 2019-04-13 18:45:50 21.9 17 26.2
003A57E8 2019-04-13 18:15:11 22.1 18 26.1
003A57E8 2019-04-13 17:44:32 22.1 18 26.2
003A57E8 2019-04-13 17:13:52 22.1 18 26.3
003A57E8 2019-04-13 16:43:14 22.1 18 26.2
003A57E8 2019-04-13 16:12:35 22.1 18 26.2
003A57E8 2019-04-13 15:41:56 22.1 18 26.3
003A57E8 2019-04-13 15:11:17 22.1 18 26.1
003A57E8 2019-04-13 14:40:38 22.1 18 26.1
003A57E8 2019-04-13 14:10:00 22.1 18 26.1
003A57E8 2019-04-13 13:39:21 22.1 18 26.1
003A57E8 2019-04-13 13:08:41 22.1 18 26
003A57E8 2019-04-13 12:38:02 22.1 18 25.9
003A57E8 2019-04-13 12:07:21 22.1 18 25.7
003A57E8 2019-04-13 11:36:42 22.1 18 25.7
003A57E8 2019-04-13 11:06:02 22.1 18 25.8
003A57E8 2019-04-13 10:35:23 22.1 18 25.7
003A57E8 2019-04-13 10:04:44 22.1 18 25.7
003A57E8 2019-04-13 09:34:05 22.1 18 25.7
003A57E8 2019-04-13 09:03:25 22.1 18 25.4
003A57E8 2019-04-13 08:32:47 22.1 18 25.3
003A57E8 2019-04-13 08:02:07 22.1 18 25.4
003A57E8 2019-04-13 07:31:29 22.1 17 25.3
003A57E8 2019-04-13 07:00:49 22.1 17 25.1
003A57E8 2019-04-13 06:30:08 22.1 18 24.9
003A57E8 2019-04-13 05:59:28 22.1 18 24.7
003A57E8 2019-04-13 05:28:48 22.1 18 24.8
003A57E8 2019-04-13 04:58:09 22.1 18 24.8
003A57E8 2019-04-13 04:27:28 22.2 18 24.9
003A57E8 2019-04-13 03:56:47 22.2 17 25.1
003A57E8 2019-04-13 03:26:07 22.3 18 25.1
003A57E8 2019-04-13 02:55:27 22.3 18 25.5
003A57E8 2019-04-13 02:24:48 22.3 18 25.9
003A57E8 2019-04-13 01:54:08 22.3 18 25.9
003A57E8 2019-04-13 01:23:29 22.3 18 25.7
003A57E8 2019-04-13 00:52:50 22.3 18 25.7
003A57E8 2019-04-13 00:22:09 22.3 18 25.8
003A57E8 2019-04-12 23:51:31 22.4 18 25.9
003A57E8 2019-04-12 23:20:52 22.5 18 26.1
003A57E8 2019-04-12 22:50:13 22.5 19 26.1
003A57E8 2019-04-12 22:19:34 22.5 19 26
003A57E8 2019-04-12 21:48:54 22.6 19 26.1
003A57E8 2019-04-12 21:18:15 22.7 19 26.1
003A57E8 2019-04-12 20:47:35 22.7 18 26.2
003A57E8 2019-04-12 20:16:55 22.7 18 26.4
003A57E8 2019-04-12 19:46:15 22.8 18 26.5
003A57E8 2019-04-12 19:15:35 22.8 18 26.6
003A57E8 2019-04-12 18:44:53 22.8 17 26.8
003A57E8 2019-04-12 18:14:13 22.9 17 26.9
003A57E8 2019-04-12 17:43:32 22.9 18 26.9
003A57E8 2019-04-12 17:12:50 22.8 18 27.2
003A57E8 2019-04-12 16:42:10 22.8 18 27.3
003A57E8 2019-04-12 16:11:30 22.8 18 27.4
003A57E8 2019-04-12 15:40:50 22.5 18 27.6
003A57E8 2019-04-12 15:10:09 22.4 18 27.1
003A57E8 2019-04-12 14:39:29 22.1 18 27.6
003A57E8 2019-04-12 14:08:48 21.9 19 26.4
003A57E8 2019-04-12 13:38:08 21.5 20 21.8
003A57E8 2019-04-12 13:07:27 20.8 22 7.2